TimeMST,TemperatureF,Dew PointF,Humidity,Sea Level PressureIn,VisibilityMPH,Wind Direction,Wind SpeedMPH,Gust SpeedMPH,PrecipitationIn,Events,Conditions,WindDirDegrees,DateUTC
12:53 AM,-7.1,-11.0,83,30.69,10.0,Calm,Calm,-,N/A,,Clear,0,2013-02-28 07:53:00
1:53 AM,-9.9,-15.0,78,30.69,10.0,Calm,Calm,-,N/A,,Clear,0,2013-02-28 08:53:00
2:53 AM,-9.0,-14.1,79,30.66,10.0,Calm,Calm,-,N/A,,Clear,0,2013-02-28 09:53:00
3:53 AM,-11.0,-15.0,83,30.67,10.0,Calm,Calm,-,N/A,,Clear,0,2013-02-28 10:53:00
4:53 AM,-11.0,-17.0,75,30.68,10.0,Calm,Calm,-,N/A,,Clear,0,2013-02-28 11:53:00
5:53 AM,-11.9,-18.0,74,30.71,10.0,Calm,Calm,-,N/A,,Clear,0,2013-02-28 12:53:00
6:53 AM,-11.2,-18.4,70,30.36,10.0,Calm,Calm,-,N/A,,Clear,0,2013-02-28 13:53:00
7:53 AM,-8.0,-11.9,83,30.76,10.0,Calm,Calm,-,N/A,,Clear,0,2013-02-28 14:53:00
8:53 AM,-2.9,-5.1,90,30.78,10.0,Calm,Calm,-,N/A,,Mostly Cloudy,0,2013-02-28 15:53:00
9:53 AM,3.9,-2.0,76,30.75,10.0,Calm,Calm,-,N/A,,Mostly Cloudy,0,2013-02-28 16:53:00
10:53 AM,12.0,3.0,67,30.70,10.0,SW,4.6,-,N/A,,Overcast,220,2013-02-28 17:53:00
11:53 AM,15.1,5.0,64,30.71,10.0,SW,4.6,-,N/A,,Overcast,220,2013-02-28 18:53:00
12:53 PM,18.0,7.0,62,30.66,10.0,South,4.6,-,N/A,,Overcast,170,2013-02-28 19:53:00
1:53 PM,19.9,7.0,57,30.66,10.0,Calm,Calm,-,N/A,,Overcast,0,2013-02-28 20:53:00
2:53 PM,27.0,10.9,51,30.62,10.0,NE,4.6,-,0.00,,Overcast,50,2013-02-28 21:53:00
3:53 PM,26.1,12.0,55,30.62,10.0,Calm,Calm,-,0.00,,Overcast,0,2013-02-28 22:53:00
4:53 PM,26.1,12.9,58,30.62,10.0,Variable,3.5,-,0.00,,Overcast,0,2013-02-28 23:53:00
5:53 PM,24.1,15.1,69,30.65,10.0,NW,4.6,-,N/A,,Overcast,310,2013-03-01 00:53:00
6:53 PM,24.8,15.8,69,30.35,10.0,ESE,3.5,-,N/A,,Overcast,120,2013-03-01 01:53:00
7:53 PM,25.0,17.1,72,30.64,10.0,Calm,Calm,-,N/A,,Overcast,0,2013-03-01 02:53:00
8:53 PM,24.1,18.0,77,30.63,10.0,Calm,Calm,-,N/A,,Overcast,0,2013-03-01 03:53:00
9:53 PM,23.0,18.0,81,30.61,10.0,Calm,Calm,-,N/A,,Overcast,0,2013-03-01 04:53:00
10:53 PM,21.0,16.0,81,30.58,10.0,Calm,Calm,-,N/A,,Scattered Clouds,0,2013-03-01 05:53:00
11:53 PM,19.0,15.1,85,30.58,10.0,Calm,Calm,-,N/A,,Mostly Cloudy,0,2013-03-01 06:53:00